Adak, AK

10:54 PM HST on February 25, 2017 (GMT -1000)
Eareckson Air Station

Weather History for PASY - November, 2013

Change the Weather History Date:

Saturday, November 23, 2013

  Actual Average Record
Temperature  
Mean Temperature 37 °F -  
Max Temperature 39 °F 38 °F 45 °F (1970)
Min Temperature 35 °F 33 °F 24 °F (1965)
Degree Days  
Heating Degree Days 28    
Moisture  
Dew Point 28 °F    
Average Humidity 67    
Maximum Humidity 82    
Minimum Humidity 57    
Precipitation  
Precipitation 0.00 in - - ()
Sea Level Pressure  
Sea Level Pressure 29.79 in    
Wind  
Wind Speed 18 mph (SE)    
Max Wind Speed 23 mph    
Max Gust Speed 25 mph    
Visibility 10 miles    
Events      
Averages and records for this station are not official NWS values.
T = Trace of Precipitation, MM = Missing Value Source: NWS Daily Summary

Daily Weather History Graph

Daily Weather History Graph

Search for Another Location

Airport or City:

Trip Planner

Search our weather history database for the weather conditions in past years. The results will help you decide how hot, cold, wet, or windy it might be!

Date:

Astronomy

Nov. 22, 2013 Rise Set
Actual Time 9:59 AM HST 6:19 PM HST
Civil Twilight 9:20 AM HST 6:59 PM HST
Nautical Twilight 8:37 AM HST 7:41 PM HST
Astronomical Twilight 7:56 AM HST 8:22 PM HST
Moon No Moon Rise 2:08 PM HST (11/23)
Length of Visible Light 9h 39m
Length of Day
8h 20m
Waning Gibbous, 68% of the Moon is Illuminated
Nov 23
Waning Gibbous
Nov 25
Last Quarter
Dec 2
New
Dec 9
First Quarter
Dec 16
Full

Hourly Weather History & Observations

Time (HST) Temp. Windchill Dew Point Humidity Pressure Visibility Wind Dir Wind Speed Gust Speed Precip Events Conditions
12:56 AM 37.9 °F 29.2 °F 28.9 °F 70% 29.73 in 10.0 mi ESE 15.0 mph - N/A   Partly Cloudy
1:56 AM 37.9 °F 28.5 °F 28.0 °F 68% 29.73 in 10.0 mi ESE 17.3 mph - N/A   Clear
2:56 AM 37.9 °F 28.5 °F 27.0 °F 65% 29.73 in 10.0 mi ESE 17.3 mph - N/A   Clear
3:56 AM 37.9 °F 28.9 °F 28.9 °F 70% 29.74 in 10.0 mi SE 16.1 mph - N/A   Scattered Clouds
4:56 AM 37.9 °F 27.9 °F 30.0 °F 73% 29.76 in 10.0 mi SE 19.6 mph - N/A   Scattered Clouds
5:56 AM 39.0 °F 29.9 °F 28.9 °F 67% 29.76 in 10.0 mi SE 17.3 mph - N/A   Clear
6:56 AM 39.0 °F 29.6 °F 28.9 °F 67% 29.76 in 10.0 mi SSE 18.4 mph - N/A   Scattered Clouds
7:56 AM 39.0 °F 29.3 °F 30.0 °F 70% 29.78 in 10.0 mi SSE 19.6 mph - N/A   Mostly Cloudy
8:56 AM 37.9 °F 27.6 °F 30.9 °F 76% 29.78 in 10.0 mi SE 20.7 mph - N/A   Partly Cloudy
9:56 AM 39.0 °F 29.0 °F 30.0 °F 70% 29.78 in 10.0 mi SSE 20.7 mph - N/A   Scattered Clouds
10:56 AM 39.0 °F 28.5 °F 28.9 °F 67% 29.79 in 10.0 mi SE 23.0 mph - N/A   Partly Cloudy
11:56 AM 39.0 °F 28.5 °F 28.0 °F 65% 29.80 in 10.0 mi SSE 23.0 mph - N/A   Scattered Clouds
12:56 PM 39.9 °F 30.0 °F 28.9 °F 65% 29.81 in 10.0 mi SSE 21.9 mph - N/A   Mostly Cloudy
1:56 PM 39.0 °F 29.0 °F 28.9 °F 67% 29.80 in 10.0 mi SE 20.7 mph - N/A   Partly Cloudy
2:56 PM 39.0 °F 28.8 °F 28.9 °F 67% 29.80 in 10.0 mi SSE 21.9 mph - N/A   Scattered Clouds
3:56 PM 39.0 °F 29.0 °F 28.9 °F 67% 29.80 in 10.0 mi SE 20.7 mph - N/A   Mostly Cloudy
4:56 PM 37.9 °F 28.5 °F 28.9 °F 70% 29.80 in 10.0 mi SE 17.3 mph - N/A   Overcast
5:56 PM 35.1 °F 24.1 °F 30.0 °F 82% 29.81 in 10.0 mi SE 19.6 mph - N/A   Overcast
6:56 PM 37.0 °F 26.7 °F 28.0 °F 70% 29.81 in 10.0 mi ESE 19.6 mph - N/A   Scattered Clouds
7:56 PM 37.0 °F 26.7 °F 28.0 °F 70% 29.82 in 10.0 mi SE 19.6 mph - N/A   Mostly Cloudy
8:56 PM 37.0 °F 26.7 °F 26.1 °F 65% 29.83 in 10.0 mi ESE 19.6 mph - N/A   Partly Cloudy
9:56 PM 37.0 °F 26.7 °F 26.1 °F 65% 29.84 in 10.0 mi ESE 19.6 mph - N/A   Partly Cloudy
10:56 PM 36.0 °F 25.3 °F 24.1 °F 62% 29.84 in 10.0 mi ESE 19.6 mph 25.3 mph N/A   Clear
11:56 PM 36.0 °F 26.0 °F 23.0 °F 59% 29.85 in 10.0 mi ESE 17.3 mph - N/A   Clear